�N����,����,�~����,�C��,���x,�C��,����,���ϕ���,�ő�u�ԕ���,�ő厞����,���˗�,�I�_���x,�n�����x,�ő啗���N��,DTYPE
"23/09/30","00:10",0.0,18.8,83.9,1007.1,309.9,1.3,2.6,322.6,0.00,16.1,23.4,"00:07:20",1
"23/09/30","00:20",0.0,19.0,83.4,1007.1,298.2,1.3,2.1,327.9,0.00,16.2,23.0,"00:12:56",1
"23/09/30","00:30",0.0,18.9,83.2,1007.4,293.8,1.1,1.7,311.6,0.00,16.0,23.1,"00:21:44",1
"23/09/30","00:40",0.0,18.7,83.2,1007.4,284.1,0.7,1.2,258.7,0.00,15.8,23.2,"00:30:02",1
"23/09/30","00:50",0.0,18.6,83.5,1007.4,297.5,1.1,2.0,324.1,0.00,15.8,23.1,"00:47:52",1
"23/09/30","01:00",0.0,18.6,83.6,1007.4,303.1,1.1,1.7,327.5,0.00,15.8,23.0,"00:59:44",1
"23/09/30","01:10",0.0,18.5,83.9,1007.6,313.4,1.0,1.6,326.1,0.00,15.8,22.9,"01:07:44",1
"23/09/30","01:20",0.0,18.1,84.8,1007.1,302.0,1.1,1.6,314.9,0.00,15.5,22.9,"01:10:08",1
"23/09/30","01:30",0.0,18.0,85.6,1007.1,297.7,1.1,1.8,311.8,0.00,15.6,22.9,"01:23:36",1
"23/09/30","01:40",0.0,18.1,85.7,1006.9,300.6,1.3,1.9,312.7,0.00,15.7,22.8,"01:33:28",1
"23/09/30","01:50",0.0,18.0,85.8,1007.1,287.7,1.0,1.2,298.4,0.00,15.6,22.9,"01:48:00",1
"23/09/30","02:00",0.0,18.1,85.9,1007.4,285.5,1.3,2.2,301.1,0.00,15.7,22.8,"01:53:36",1
"23/09/30","02:10",0.0,18.1,85.9,1006.7,284.5,1.1,1.6,302.8,0.00,15.7,22.8,"02:00:16",1
"23/09/30","02:20",0.0,18.2,85.8,1006.9,283.7,1.3,2.7,316.3,0.00,15.8,22.7,"02:14:56",1
"23/09/30","02:30",0.0,18.2,85.7,1006.7,306.2,1.2,2.4,325.8,0.00,15.8,22.5,"02:26:08",1
"23/09/30","02:40",0.0,18.3,85.7,1006.7,329.1,1.1,1.9,314.6,0.00,15.9,22.5,"02:31:28",1
"23/09/30","02:50",0.0,18.1,85.9,1006.7,326.4,1.6,2.8,322.7,0.00,15.7,22.7,"02:45:28",1
"23/09/30","03:00",0.0,18.3,85.9,1006.7,304.8,1.3,3.1,337.7,0.00,15.9,22.5,"02:50:32",1
"23/09/30","03:10",0.0,18.2,85.8,1006.9,308.4,1.0,1.9,337.7,0.00,15.8,22.6,"03:04:32",1
"23/09/30","03:20",0.0,18.1,85.9,1006.7,328.9,1.1,2.0,333.6,0.00,15.7,22.7,"03:10:56",1
"23/09/30","03:30",0.0,17.5,86.2,1006.9,296.1,0.7,1.0,321.7,0.00,15.2,22.5,"03:24:40",1
"23/09/30","03:40",0.0,17.1,86.5,1006.7,291.9,0.8,1.2,314.0,0.00,14.9,22.5,"03:36:56",1
"23/09/30","03:50",0.0,17.0,87.3,1006.2,291.3,1.0,1.3,302.8,0.00,14.9,22.5,"03:48:32",1
"23/09/30","04:00",0.0,17.3,87.8,1006.9,292.4,1.2,1.7,264.4,0.00,15.3,22.5,"03:53:28",1
"23/09/30","04:10",0.0,17.5,88.0,1006.4,312.5,1.5,2.1,306.3,0.00,15.5,22.5,"04:05:44",1
"23/09/30","04:20",0.0,17.6,88.0,1006.2,320.8,1.5,2.1,328.3,0.00,15.6,22.2,"04:13:20",1
"23/09/30","04:30",0.0,17.6,87.8,1006.7,308.1,1.2,1.8,298.6,0.00,15.6,22.2,"04:20:24",1
"23/09/30","04:40",0.0,17.7,87.6,1006.7,313.6,1.3,2.4,313.8,0.00,15.7,22.3,"04:34:08",1
"23/09/30","04:50",0.0,17.6,87.5,1006.4,321.9,1.2,1.9,295.4,0.00,15.5,22.2,"04:48:56",1
"23/09/30","05:00",0.0,17.6,87.5,1006.7,312.6,1.2,2.2,318.0,0.00,15.5,22.1,"04:52:56",1
"23/09/30","05:10",0.0,17.5,87.4,1006.4,312.1,0.7,1.1,335.7,0.00,15.4,22.1,"05:00:48",1
"23/09/30","05:20",0.0,17.2,87.5,1006.9,313.9,1.0,1.6,311.0,0.00,15.1,22.1,"05:17:44",1
"23/09/30","05:30",0.0,17.2,88.2,1006.9,331.8,1.3,1.7,324.0,0.00,15.3,22.1,"05:21:44",1
"23/09/30","05:40",0.0,17.0,88.8,1007.1,323.0,1.2,1.6,323.2,0.00,15.2,22.1,"05:38:32",1
"23/09/30","05:50",0.0,16.9,89.4,1007.1,319.8,1.1,1.4,317.6,0.00,15.2,22.0,"05:47:28",1
"23/09/30","06:00",0.0,16.8,89.8,1006.9,305.1,0.8,1.6,317.3,0.00,15.2,22.1,"05:51:36",1
"23/09/30","06:10",0.0,17.0,90.3,1007.1,296.9,1.0,1.9,311.1,0.00,15.4,22.0,"06:04:48",1
"23/09/30","06:20",0.0,17.2,90.6,1007.4,303.5,1.2,1.9,319.4,0.00,15.7,21.9,"06:18:08",1
"23/09/30","06:30",0.0,17.6,90.7,1007.1,285.3,0.8,1.6,314.3,0.00,16.1,22.0,"06:20:24",1
"23/09/30","06:40",0.0,17.9,90.4,1007.4,324.8,1.3,2.0,338.3,0.01,16.3,22.0,"06:38:16",1
"23/09/30","06:50",0.0,18.7,90.0,1007.4,332.8,1.2,1.9,338.1,0.02,17.1,21.8,"06:41:12",1
"23/09/30","07:00",0.0,19.7,89.5,1007.1,317.5,0.6,1.1,316.4,0.03,18.0,22.0,"06:50:48",1
"23/09/30","07:10",0.0,20.3,88.5,1007.8,293.1,0.3,0.8,331.5,0.05,18.4,21.9,"07:09:04",1
"23/09/30","07:20",0.0,21.0,86.7,1007.1,322.6,0.6,1.3,313.9,0.06,18.7,21.8,"07:17:20",1
"23/09/30","07:30",0.0,21.7,84.5,1006.9,313.3,0.6,1.1,314.0,0.08,19.0,21.9,"07:28:32",1
"23/09/30","07:40",0.0,22.7,80.9,1006.9,278.1,0.2,0.6,312.9,0.10,19.3,21.9,"07:30:08",1
"23/09/30","07:50",0.0,23.3,76.3,1006.7,292.0,0.2,0.8,213.3,0.12,18.9,22.0,"07:48:16",1
"23/09/30","08:00",0.0,23.8,72.6,1006.7,175.5,0.3,1.1,129.6,0.15,18.6,22.0,"07:55:04",1
"23/09/30","08:10",0.0,24.3,70.2,1006.2,295.8,0.3,1.2,331.6,0.17,18.6,21.9,"08:06:56",1
"23/09/30","08:20",0.0,24.6,70.6,1006.0,231.8,0.3,1.2,241.2,0.19,18.9,22.1,"08:17:36",1
"23/09/30","08:30",0.0,25.1,68.7,1006.2,107.8,0.5,1.2,120.5,0.21,19.0,22.0,"08:23:12",1
"23/09/30","08:40",0.0,25.5,65.4,1005.5,173.7,0.5,1.1,75.8,0.23,18.6,22.1,"08:35:20",1
"23/09/30","08:50",0.0,25.9,63.9,1005.2,132.9,0.6,1.6,109.1,0.25,18.6,22.1,"08:48:16",1
"23/09/30","09:00",0.0,26.3,63.6,1005.7,166.8,0.8,1.6,199.8,0.27,18.9,22.2,"08:52:24",1
"23/09/30","09:10",0.0,26.6,62.5,1005.5,171.6,0.7,1.8,64.8,0.29,18.9,22.2,"09:01:20",1
"23/09/30","09:20",0.0,27.0,62.1,1006.0,151.9,0.7,2.5,209.2,0.31,19.2,22.3,"09:17:12",1
"23/09/30","09:30",0.0,27.2,60.2,1006.2,155.8,1.0,1.9,190.8,0.33,18.9,22.4,"09:23:52",1
"23/09/30","09:40",0.0,27.8,59.5,1006.2,154.9,0.8,2.0,190.1,0.35,19.2,22.6,"09:38:16",1
"23/09/30","09:50",0.0,28.3,58.5,1006.2,115.3,1.0,1.9,105.8,0.36,19.4,22.6,"09:40:48",1
"23/09/30","10:00",0.0,28.4,56.5,1006.0,58.9,0.8,2.2,354.1,0.38,19.0,22.6,"09:57:12",1
"23/09/30","10:10",0.0,28.4,56.8,1006.2,19.5,1.0,2.2,337.3,0.39,19.0,22.6,"10:02:32",1
"23/09/30","10:20",0.0,28.7,55.8,1006.2,35.9,1.1,3.2,31.4,0.40,19.0,22.7,"10:11:52",1
"23/09/30","10:30",0.0,29.2,57.3,1006.2,141.1,1.2,3.1,201.1,0.43,19.9,22.9,"10:28:48",1
"23/09/30","10:40",0.0,29.3,56.5,1005.7,166.1,1.3,3.7,211.7,0.44,19.8,23.0,"10:35:28",1
"23/09/30","10:50",0.0,30.3,55.2,1006.2,120.6,0.8,1.9,93.1,0.47,20.4,23.3,"10:45:52",1
"23/09/30","11:00",0.0,30.5,52.6,1006.2,312.7,1.0,2.9,233.1,0.41,19.8,23.3,"10:59:12",1
"23/09/30","11:10",0.0,30.1,54.7,1005.7,176.0,1.6,3.2,193.9,0.47,20.0,23.4,"11:05:04",1
"23/09/30","11:20",0.0,29.5,56.3,1005.5,184.8,1.6,3.4,191.1,0.28,19.9,23.4,"11:14:48",1
"23/09/30","11:30",0.0,29.4,58.3,1005.0,121.6,0.8,2.1,105.9,0.14,20.4,23.5,"11:24:40",1
"23/09/30","11:40",0.0,29.2,59.9,1004.3,172.5,1.2,3.4,191.3,0.20,20.7,23.7,"11:32:48",1
"23/09/30","11:50",0.0,29.9,57.1,1004.5,181.5,1.3,2.6,229.8,0.31,20.5,23.7,"11:49:44",1
"23/09/30","12:00",0.0,30.1,57.0,1004.1,201.8,1.5,4.4,219.8,0.26,20.7,23.8,"11:57:44",1
"23/09/30","12:10",0.0,30.3,56.3,1004.3,180.7,1.7,3.7,202.9,0.27,20.7,23.7,"12:09:20",1
"23/09/30","12:20",0.0,30.1,58.5,1004.1,221.4,1.3,4.4,234.1,0.20,21.1,23.7,"12:10:56",1
"23/09/30","12:30",0.0,30.9,55.2,1003.8,221.3,2.5,7.1,225.9,0.38,20.9,24.1,"12:21:28",1
"23/09/30","12:40",0.0,31.4,53.2,1003.8,222.6,2.1,5.1,206.0,0.47,20.8,23.6,"12:39:04",1
"23/09/30","12:50",0.0,31.5,53.2,1004.1,212.2,3.1,6.0,218.8,0.47,20.9,24.0,"12:45:04",1
"23/09/30","13:00",0.0,31.2,54.5,1003.6,241.8,2.5,5.9,234.8,0.42,21.0,24.1,"12:55:12",1
"23/09/30","13:10",0.0,30.8,54.5,1003.6,230.5,3.1,7.2,208.9,0.30,20.6,24.3,"13:04:32",1
"23/09/30","13:20",0.0,31.1,54.5,1003.1,205.5,1.7,4.0,188.1,0.25,20.9,24.4,"13:19:52",1
"23/09/30","13:30",0.0,30.6,54.2,1002.9,207.0,2.2,5.0,210.7,0.16,20.3,24.4,"13:24:24",1
"23/09/30","13:40",0.0,30.1,55.1,1002.4,212.2,1.7,3.3,188.6,0.06,20.1,24.4,"13:32:40",1
"23/09/30","13:50",0.0,29.8,56.4,1001.9,216.0,1.8,3.9,234.4,0.03,20.2,24.4,"13:41:04",1
"23/09/30","14:00",0.0,29.6,57.3,1001.5,228.2,2.2,3.7,237.6,0.02,20.3,24.4,"13:53:52",1
"23/09/30","14:10",0.0,29.2,58.9,1001.7,233.0,1.6,4.1,239.5,0.03,20.4,24.5,"14:00:08",1
"23/09/30","14:20",0.0,29.2,59.9,1001.2,236.0,2.5,5.0,208.9,0.07,20.7,24.6,"14:18:40",1
"23/09/30","14:30",0.0,29.1,60.5,1001.2,227.6,2.3,5.1,203.5,0.08,20.7,24.5,"14:20:08",1
"23/09/30","14:40",0.0,29.0,61.6,1000.8,250.5,1.3,3.4,245.2,0.04,20.9,24.3,"14:36:56",1
"23/09/30","14:50",0.0,28.9,61.3,1001.0,248.9,1.1,2.6,233.4,0.05,20.7,24.7,"14:40:02",1
"23/09/30","15:00",0.0,28.7,61.9,1001.0,263.2,1.3,3.4,236.2,0.02,20.7,24.5,"14:50:56",1
"23/09/30","15:10",0.0,28.5,63.3,1000.8,245.9,1.6,4.9,244.3,0.01,20.9,24.5,"15:04:32",1
"23/09/30","15:20",0.0,28.4,64.3,1001.0,269.7,1.3,3.3,190.9,0.02,21.1,24.6,"15:13:20",1
"23/09/30","15:30",0.0,28.5,65.1,1000.5,328.3,1.0,2.6,348.7,0.04,21.3,24.3,"15:28:56",1
"23/09/30","15:40",0.0,28.3,65.5,1001.5,337.5,1.3,2.6,351.9,0.03,21.3,24.4,"15:39:44",1
"23/09/30","15:50",0.0,28.2,66.3,1001.2,341.4,1.0,2.4,354.9,0.01,21.4,24.3,"15:44:48",1
"23/09/30","16:00",0.0,27.9,67.2,1001.2,351.8,1.3,3.3,345.4,0.00,21.3,24.5,"15:55:52",1
"23/09/30","16:10",0.0,27.9,67.8,1001.2,351.6,0.8,1.9,16.7,0.00,21.4,24.5,"16:08:32",1
"23/09/30","16:20",0.0,27.7,68.6,1001.2,263.0,0.8,1.8,233.7,0.00,21.4,24.5,"16:16:00",1
"23/09/30","16:30",0.0,27.6,69.4,1001.5,318.1,0.8,1.7,353.7,0.00,21.5,24.5,"16:26:56",1
"23/09/30","16:40",0.0,27.5,70.2,1001.5,317.7,0.5,1.1,338.3,0.00,21.6,24.4,"16:33:04",1
"23/09/30","16:50",0.0,27.5,71.3,1001.5,317.3,0.8,1.6,343.3,0.00,21.9,24.3,"16:46:24",1
"23/09/30","17:00",0.0,27.4,72.1,1001.2,315.7,1.0,2.1,347.3,0.00,22.0,24.5,"16:58:16",1
"23/09/30","17:10",0.0,27.2,73.0,1001.5,338.9,1.2,1.9,327.2,0.00,22.0,24.4,"17:00:40",1
"23/09/30","17:20",0.0,27.1,73.6,1001.5,319.5,1.1,2.0,331.6,0.00,22.0,24.4,"17:16:32",1
"23/09/30","17:30",0.0,26.9,74.6,1001.5,333.7,1.0,1.7,334.4,0.00,22.0,24.5,"17:27:36",1
"23/09/30","17:40",0.0,26.7,74.9,1001.7,308.0,0.8,1.9,324.5,0.00,21.9,24.4,"17:36:32",1
"23/09/30","17:50",0.0,26.5,75.4,1001.7,323.2,0.8,2.5,332.0,0.00,21.8,24.4,"17:41:28",1
"23/09/30","18:00",0.0,26.0,74.3,1001.5,333.4,1.3,2.6,334.3,0.00,21.1,24.2,"17:55:44",1
"23/09/30","18:10",0.0,26.6,70.6,1001.7,280.8,1.1,2.6,248.8,0.00,20.9,24.3,"18:05:04",1
"23/09/30","18:20",0.0,26.8,69.4,1001.7,304.1,1.2,3.2,236.7,0.00,20.8,24.3,"18:11:04",1
"23/09/30","18:30",0.0,26.6,69.8,1001.7,330.4,1.3,2.9,345.5,0.00,20.7,24.2,"18:28:56",1
"23/09/30","18:40",0.0,26.4,70.7,1001.7,335.0,1.3,2.6,347.4,0.00,20.7,24.2,"18:30:32",1
"23/09/30","18:50",0.0,26.2,71.5,1002.2,353.9,0.8,2.0,2.1,0.00,20.7,24.4,"18:42:56",1
"23/09/30","19:00",0.0,26.1,72.5,1002.2,349.6,1.0,2.5,340.5,0.00,20.8,24.3,"18:51:28",1
"23/09/30","19:10",0.0,25.8,73.6,1002.2,263.3,0.5,1.3,319.3,0.00,20.8,24.3,"19:09:52",1
"23/09/30","19:20",0.0,25.9,74.2,1002.2,329.1,1.6,2.8,317.4,0.00,21.0,24.1,"19:19:12",1
"23/09/30","19:30",0.0,26.0,74.2,1001.9,312.6,1.7,3.3,253.8,0.00,21.1,24.0,"19:27:52",1
"23/09/30","19:40",0.0,26.2,73.8,1001.9,316.6,1.6,3.1,303.5,0.00,21.2,24.5,"19:38:48",1
"23/09/30","19:50",0.0,26.3,73.2,1001.7,306.7,1.7,3.7,245.3,0.00,21.2,24.1,"19:49:36",1
"23/09/30","20:00",0.0,26.2,73.6,1001.9,306.9,1.2,2.4,335.7,0.00,21.2,24.2,"19:55:20",1
"23/09/30","20:10",0.0,25.9,74.3,1002.6,314.5,0.7,1.6,339.0,0.00,21.0,24.3,"20:00:40",1
"23/09/30","20:20",0.0,25.7,75.2,1002.4,328.8,0.7,1.3,339.5,0.00,21.0,24.2,"20:16:24",1
"23/09/30","20:30",0.0,25.6,76.3,1002.2,333.9,1.1,2.6,343.0,0.00,21.2,24.1,"20:27:36",1
"23/09/30","20:40",0.0,25.5,76.7,1002.2,340.3,0.7,1.7,312.5,0.00,21.1,24.3,"20:30:16",1
"23/09/30","20:50",0.0,25.5,77.2,1002.2,341.0,0.6,1.3,251.6,0.00,21.3,23.9,"20:47:28",1
"23/09/30","21:00",0.0,25.3,77.7,1001.9,340.3,0.1,0.6,269.0,0.00,21.2,24.3,"20:50:08",1
"23/09/30","21:10",0.0,24.9,78.4,1001.9,297.7,0.2,0.6,287.9,0.00,20.9,24.1,"21:00:08",1
"23/09/30","21:20",0.0,24.8,79.6,1002.2,328.9,0.7,1.2,350.0,0.00,21.1,24.0,"21:18:16",1
"23/09/30","21:30",0.0,24.8,80.5,1002.4,336.0,0.7,1.1,337.2,0.00,21.3,24.0,"21:26:00",1
"23/09/30","21:40",0.0,25.1,80.7,1002.2,299.8,0.8,3.3,203.3,0.00,21.6,24.1,"21:34:56",1
"23/09/30","21:50",0.0,25.1,80.0,1002.2,286.7,0.6,1.3,216.8,0.00,21.4,24.1,"21:44:24",1
"23/09/30","22:00",0.0,25.0,79.9,1001.9,323.6,0.5,1.0,320.2,0.00,21.3,24.1,"21:57:20",1
"23/09/30","22:10",0.0,24.8,80.9,1002.2,316.8,0.7,1.3,337.5,0.00,21.3,24.0,"22:08:00",1
"23/09/30","22:20",0.0,24.6,81.8,1002.2,326.3,0.7,1.6,328.4,0.00,21.3,24.1,"22:10:40",1
"23/09/30","22:30",0.0,24.5,82.6,1001.9,339.8,0.7,1.2,5.0,0.00,21.4,24.0,"22:25:28",1
"23/09/30","22:40",0.0,24.2,83.2,1001.7,313.9,0.3,1.2,334.0,0.00,21.2,24.1,"22:31:12",1
"23/09/30","22:50",0.0,24.1,84.1,1001.7,183.9,0.2,0.9,232.8,0.00,21.3,24.1,"22:44:48",1
"23/09/30","23:00",0.0,24.4,85.3,1001.7,197.9,0.7,2.1,233.8,0.00,21.8,24.1,"22:53:12",1
"23/09/30","23:10",0.0,24.4,86.2,1002.2,199.8,1.5,3.5,203.0,0.00,22.0,24.2,"23:06:16",1
"23/09/30","23:20",1.0,24.0,86.9,1001.7,150.8,1.0,3.1,195.0,0.00,21.7,23.9,"23:10:16",1
"23/09/30","23:30",0.0,23.9,87.8,1001.5,9.9,0.8,1.7,353.6,0.00,21.8,24.0,"23:20:56",1
"23/09/30","23:40",0.0,23.7,88.5,1001.5,309.1,0.6,1.3,236.0,0.00,21.7,24.0,"23:38:24",1
"23/09/30","23:50",0.0,23.7,89.1,1001.5,183.7,0.8,1.6,234.8,0.00,21.8,24.0,"23:43:44",1
"23/09/30","24:00",0.0,23.5,89.7,1001.5,174.7,0.5,0.9,119.4,0.00,21.7,23.8,"23:50:08",1
